Location: Unspecified
(0.0000°N, 0.0000°E)
Time: 19:00:15
(UTC+00:00)

Vanguard 2 Rocket - Pass Details

Date: 23 January 2020
Orbit: 554 x 3327 km, 32.9° (Epoch: 20 February)

Event Time Altitude Azimuth Distance (km) Brightness Sun altitude
Rises 00:33:20 0° 227° (SW) 4,225 - -69.7°
Reaches altitude 10° 00:36:56 10° 221° (SW) 2,844 - -69.4°
Maximum altitude 00:42:57 44° 150° (SSE) 1,003 - -68.9°
Drops below altitude 10° 00:47:03 10° 76° (ENE) 1,944 - -68.6°
Sets 00:49:06 0° 69° (ENE) 2,753 - -68.3°
